Flag for Germany Weather past 2 weeks in Nürburg, Rhineland-Palatinate, Germany

Now
41 °F

Partly sunny.


Feels Like: 37 °F
Forecast: 34 / 39 °F
Wind: 6 mph from West

Location: Nuerburg-Barweiler

Current Time: Mar 4, 2015 at 4:29:28 PM

Latest Report: Mar 4, 2015 at 4:00 PM


Visibility: 31 mi

Pressure: 30.32 "Hg

Humidity: 71%

Dew point: 32 °F

Location of NürburgLocation

Historic Weather in Nürburg — Graph

°F

Nürburg temperature yesterday

Maximum temperature yesterday: 44 °F (at 3:00 PM)
Minimum temperature yesterday: 31 °F (at 8:00 AM)
Average temperature yesterday: 36 °F

Past Weeks' High & Low Weather Summary

 TemperatureHumidityPressure
High46 °F (Mar 1, 2:00 PM)100% (Feb 18, 1:00 AM)30.78 "Hg (Feb 18, 1:00 AM)
Low27 °F (Feb 28, 6:00 AM)56% (Mar 2, 2:00 PM)29.41 "Hg (Feb 21, 4:00 AM)
Average35 °F88%29.97 "Hg
* Reported Feb 17 3:00 PM — Mar 4 3:00 PM, Nürburg, Weather by CustomWeather, © 2015

Note: Actual official high and low records may vary slightly from our data, if they occured in-between our weather recording intervals... More about our weather records

Advertising

Nürburg weather history for previous 24 hours

 ConditionsComfort  
Time TempWeatherWind HumidityBarometerVisibility
3:00 PM
Wed, Mar 4
38 °FOvercast.7 mph70%30.32 "Hg31 mi
2:00 PM39 °FOvercast.7 mph71%30.32 "Hg28 mi
1:00 PM38 °FScattered clouds.7 mph74%30.31 "Hg25 mi
12:00 PM37 °FPartly sunny.7 mph76%30.30 "Hg25 mi
11:00 AM35 °FOvercast.6 mph83%30.31 "Hg22 mi
9:00 AM32 °FPartly sunny.3 mph87%30.28 "Hg19 mi
8:00 AM31 °FPartly sunny.5 mph90%30.27 "Hg17 mi
7:00 AM31 °FPassing clouds.5 mph90%30.25 "Hg17 mi
6:00 AM32 °FPassing clouds.5 mph90%30.24 "Hg16 mi
5:00 AM33 °FClear.5 mph93%30.22 "Hg10 mi
3:00 AM33 °FPassing clouds.5 mph97%30.21 "Hg7 mi
2:00 AM33 °FPassing clouds.5 mph94%30.19 "Hg12 mi
1:00 AM33 °FPassing clouds.2 mph99%30.17 "Hg8 mi
12:00 AM32 °FSnow. Low clouds.5 mph99%30.17 "Hg0 mi
11:00 PM
Tue, Mar 3
35 °FOvercast.3 mph94%30.13 "Hg15 mi
9:00 PM35 °FOvercast.6 mph95%30.10 "Hg34 mi
8:00 PM35 °FOvercast.5 mph93%30.07 "Hg34 mi
7:00 PM34 °FLow clouds.6 mph97%30.08 "Hg25 mi
6:00 PM40 °FLight rain. Low clouds.7 mph80%30.03 "Hg7 mi
5:00 PM40 °FLight rain. Low clouds.8 mph73%30.03 "Hg25 mi
Weather by CustomWeather, © 2015

See weather overviewHow to use our weather pages